📊 Raw Sensor Data

Showing records 42551 to 42575 of 85,001 total

ID Distance (ft) Battery V Battery A Int Temp (°F) Int Humid (%) Ext Temp (°F) Solar V RSSI SNR Time Stamp
42463 15.1 4.03 0 94 41 88 5.10 -74 8 06/03/2025 02:45 PM
42462 15.1 4.01 0 92 41 85 5.10 -74 8 06/03/2025 02:30 PM
42461 15.0 4.01 0 90 41 83 5.10 -74 7 06/03/2025 02:15 PM
42460 15.0 4.03 0 90 41 82 5.10 -74 8 06/03/2025 02:00 PM
42459 15.0 4.07 0 87 41 80 5.10 -75 8 06/03/2025 01:45 PM
42458 15.0 4.01 0 86 41 81 5.10 -74 7 06/03/2025 01:30 PM
42457 15.0 4.03 0 85 41 80 5.10 -74 8 06/03/2025 01:15 PM
42456 15.0 4.01 0 84 42 78 5.10 -75 8 06/03/2025 01:00 PM
42455 15.0 4.01 0 82 42 79 5.10 -75 5 06/03/2025 12:45 PM
42454 15.0 4.01 0 79 43 77 5.10 -75 7 06/03/2025 12:30 PM
42453 15.0 4.01 0 78 43 77 5.10 -74 8 06/03/2025 12:15 PM
42452 15.0 4.01 0 77 43 74 5.10 -74 7 06/03/2025 12:00 PM
42451 15.0 4.01 0 77 43 74 5.10 -74 8 06/03/2025 11:45 AM
42450 15.1 4.01 0 77 43 74 5.10 -74 8 06/03/2025 11:30 AM
42449 15.0 4.14 0 75 43 78 5.10 -74 7 06/03/2025 11:15 AM
42448 15.1 4.01 0 75 42 75 5.10 -76 8 06/03/2025 11:00 AM
42447 15.0 4.01 0 75 42 76 5.10 -74 7 06/03/2025 10:45 AM
42446 15.1 4.01 0 73 42 71 5.10 -75 7 06/03/2025 10:30 AM
42445 15.1 4.01 0 73 42 75 5.10 -76 7 06/03/2025 10:15 AM
42444 15.1 4.01 0 71 42 74 5.10 -75 8 06/03/2025 10:00 AM
42443 15.1 4.01 0 70 42 73 5.10 -75 8 06/03/2025 09:45 AM
42442 15.1 4.01 0 69 42 72 5.10 -75 8 06/03/2025 09:30 AM
42441 15.0 4.01 5 67 43 67 5.10 -75 8 06/03/2025 09:15 AM
42440 15.0 4.02 5 66 43 68 5.10 -78 8 06/03/2025 09:00 AM
42439 15.0 4.13 5 65 43 68 5.10 -76 7 06/03/2025 08:45 AM